Simultaneous Nadir Overpasses (SNOs) Predictions

Prediction of SNOs between GOES-14 and NPP Satellite Orbit:

Table of predicted SNOs for the next 14.0 days since TLE Epoch: 2/4/2023
Index Date Time (GOES-14) GOES-14 Lat,Lon NPP Lat,Lon Distance(km) Time Diff (sec)
1 02/04/2023 20:37:55 0.00,-108.86 0.29,-107.51 153.38 80
2 02/06/2023 08:59:46 -0.00,-109.46 0.76,-112.80 381.93 80
3 02/07/2023 08:38:23 -0.01,-109.94 -0.37,-108.30 187.06 80
4 02/08/2023 21:00:23 0.01,-110.86 -0.60,-113.65 317.24 80
5 02/09/2023 20:44:21 0.01,-111.36 0.53,-109.14 253.93 80
6 02/11/2023 09:06:10 -0.01,-111.97 0.57,-114.42 279.63 80
7 02/12/2023 08:44:48 -0.01,-112.46 -0.56,-109.91 289.19 80
8 02/13/2023 21:06:48 0.01,-113.35 -0.39,-115.26 217.37 80
9 02/14/2023 20:50:45 0.01,-113.85 0.68,-110.75 353.30 80
10 02/16/2023 09:12:35 0.00,-114.47 0.36,-116.04 179.47 80
11 02/17/2023 08:51:12 -0.00,-114.94 -0.78,-111.54 388.63 80
